#timestamp,LO_Frequency,Hit,StdDev 
1501322415.5,286046995.4,N,5.2
1501322435.4,286046996.4,N,5.1
1501322455.2,286046996.1,N,5.1
1501322475.0,286046993.7,N,5.2
1501322475.9,286046993.7,N,5.2
1501322495.8,286046996.3,N,5.2
1501322515.6,286046994.5,N,5.2
1501322535.5,286046992.1,N,5.2
1501322555.3,286046991.9,N,5.3
1501322575.1,286046991.8,N,5.4
1501322595.9,286046992.1,N,5.5
1501322615.7,286046992.5,N,5.3
1501322635.6,286046990.1,N,5.0
1501322655.4,286046992.7,N,4.4
1501322675.2,286046992.6,N,4.1
1501322695.1,286046993.2,N,3.6
1501322696.0,286046993.2,N,3.1
1501322715.8,286046993.1,N,2.8
1501322735.7,286046993.1,N,2.5
1501322755.5,286046992.5,P,1.1
1501322775.3,286046995.5,P,1.3
1501322795.2,286046996.1,P,1.4
1501322815.0,286046996.2,N,1.4
1501322815.9,286046996.2,N,1.3
1501322835.8,286046995.8,P,0.3
1501322855.6,286047000.6,N,2.4
1501322875.5,286046998.1,N,2.1
1501322895.3,286046998.2,N,1.9
1501322915.1,286047001.1,N,2.2
1501322935.9,286046998.2,N,2.0
1501322955.7,286046998.2,N,1.9
1501322975.6,286046998.6,N,1.8
1501322995.4,286046998.8,N,1.7
1501323015.2,286047001.1,N,1.8
1501323035.1,286046998.8,N,1.7
1501323036.0,286046998.8,N,1.7
1501323055.8,286046999.2,N,1.6
1501323075.7,286046996.6,N,1.7
1501323095.5,286046999.4,N,1.6
1501323115.3,286046999.4,N,1.6
1501323135.2,286046996.6,N,1.6
1501323155.0,286046997.7,N,1.6
1501323155.9,286046997.7,N,1.5
1501323175.8,286046997.8,N,1.5
1501323195.6,286046996.9,N,1.5
1501323215.4,286046996.5,N,1.5
1501323235.3,286046995.2,P,1.5
1501323255.1,286046999.4,N,1.8
1501323275.9,286046999.0,N,1.6
1501323295.7,286046998.8,N,1.5
1501323315.5,286046999.3,N,1.4
1501323335.4,286047001.2,N,1.7
1501323355.2,286046998.5,N,1.6
1501323375.0,286046998.5,N,1.5
1501323376.0,286046998.5,N,1.4
1501323395.8,286046999.0,N,1.3
1501323415.6,286046999.1,N,1.3
1501323435.5,286046999.1,N,1.2
1501323455.3,286046999.6,N,1.2
1501323475.1,286046998.9,N,1.2
1501323495.9,286046999.3,N,1.1
1501323515.7,286046998.8,N,1.1
1501323535.6,286046999.6,N,1.1
1501323555.4,286046997.6,N,1.1
1501323575.2,286046999.4,N,1.1
1501323595.1,286046996.9,N,1.1
1501323596.0,286046996.9,N,1.2
1501323615.8,286046997.5,N,1.2
1501323635.7,286046997.0,N,1.2
1501323655.5,286046997.7,N,1.2
1501323675.3,286046996.8,N,1.2
1501323695.2,286046997.3,N,1.2
1501323715.0,286046997.9,N,1.2
1501323715.9,286046997.9,N,1.2
1501323735.8,286046997.6,N,1.2
1501323755.6,286046997.6,N,1.2
1501323775.4,286046998.7,N,1.0
1501323795.3,286046999.5,N,1.0
1501323815.1,286047002.7,N,1.3
1501323835.9,286047000.0,N,1.3
1501323855.7,286047001.9,N,1.4
1501323875.5,286047004.1,N,1.7
1501323895.4,286047005.5,P,3.4
1501323915.2,286047009.8,N,4.5
1501323935.1,286047013.5,N,5.5
1501323936.0,286047013.5,N,5.6
1501323955.8,286047012.5,N,5.3
1501323975.6,286047013.5,N,5.2
1501323995.5,286047013.5,N,5.0
1501324015.3,286047010.6,N,4.7
1501324035.2,286047010.3,N,4.5
1501324055.9,286047012.4,N,4.3
1501324075.7,286047007.8,N,4.2
1501324095.6,286047010.6,N,4.0
1501324115.4,286047011.7,N,3.9
1501324135.2,286047010.6,N,3.8
1501324155.1,286047010.1,N,3.7
1501324156.0,286047010.1,N,3.6
1501324175.8,286047009.9,N,3.5
1501324195.7,286047008.9,N,3.4
1501324215.5,286047010.7,P,0.3
1501324235.3,286047002.1,P,3.9
1501324255.2,286047005.0,N,3.6
1501324275.0,286047004.7,N,3.3
1501324275.9,286047004.7,N,3.1
1501324295.8,286047006.2,N,2.9
1501324315.6,286047008.2,N,2.8
1501324335.5,286047010.0,P,1.8
1501324355.3,286047001.9,N,3.3
1501324375.1,286047005.4,N,2.9
1501324395.9,286047001.9,N,3.0
1501324415.7,286047001.1,N,3.2
1501324435.6,286046999.1,N,3.5
1501324455.4,286046999.1,N,3.6
1501324475.2,286046999.3,N,3.6
1501324495.1,286046996.1,N,3.9
1501324496.0,286046996.1,N,4.1
1501324515.8,286046992.5,N,4.7
1501324535.6,286046993.6,N,4.9
1501324555.5,286046995.0,N,4.9
1501324575.3,286046995.5,N,4.8
1501324595.2,286046994.1,N,4.9
1501324615.0,286046995.2,N,4.8
1501324615.9,286046995.2,N,4.8
1501324635.7,286046996.9,N,4.6
1501324655.6,286046999.1,N,4.5
1501324675.4,286046998.8,N,4.4
1501324695.3,286046997.2,N,4.3
1501324715.1,286046995.5,N,4.3
1501324735.8,286046995.8,N,4.2
1501324755.7,286046996.9,N,4.2
1501324775.5,286046998.5,N,4.1
1501324795.4,286047000.1,N,4.0
1501324815.2,286046998.8,N,3.9
1501324835.0,286046998.8,N,3.9
1501324835.9,286046998.8,N,3.8
1501324855.8,286046998.6,N,3.5
1501324875.6,286046999.5,N,2.7
1501324895.5,286046997.2,N,2.6
1501324915.3,286046997.2,N,2.2
1501324935.1,286046995.4,N,2.1
1501324955.9,286046995.7,N,2.0
1501324975.7,286046995.5,N,1.9
1501324995.6,286046997.6,N,1.9
1501325015.4,286046995.5,N,1.8
1501325035.2,286046996.1,N,1.8
1501325055.1,286046993.8,P,1.4
1501325056.0,286046993.8,P,1.4
1501325075.8,286046996.6,N,1.4
1501325095.7,286046997.9,N,1.7
1501325115.5,286046993.4,P,1.2
1501325135.3,286046998.5,N,2.1
1501325155.2,286047001.0,N,2.9
1501325175.0,286047002.4,N,3.3
1501325175.9,286047002.4,N,3.4
1501325195.8,286047003.9,N,3.6
1501325215.6,286047002.1,N,3.5
1501325235.4,286047001.8,N,3.3
1501325255.3,286047004.4,N,3.4
1501325275.1,286047002.3,N,3.3
1501325295.9,286047000.3,N,3.1
1501325315.7,286047000.5,N,3.0
1501325335.5,286047000.8,N,2.9
1501325355.4,286046999.0,N,2.8
1501325375.2,286046997.0,N,2.9
1501325395.1,286046994.9,N,3.1
1501325396.0,286046994.9,N,3.2
1501325415.8,286046995.5,N,3.3
1501325435.6,286046995.9,N,3.3
1501325455.5,286046995.7,N,3.3
1501325475.3,286046996.7,N,3.3
1501325495.2,286046999.3,N,3.2
1501325515.9,286046998.8,N,3.1
1501325535.7,286046996.8,N,3.1
1501325555.6,286046994.9,N,3.1
1501325575.4,286046995.0,N,3.2
1501325595.3,286046995.3,N,3.2
1501325615.1,286046997.7,N,3.1
1501325635.8,286046997.0,N,3.1
1501325655.7,286046999.0,N,3.0
1501325675.5,286046997.1,N,2.9
1501325695.4,286046995.3,N,2.9
1501325715.2,286046996.2,N,2.9
1501325735.0,286046994.5,N,2.9
1501325735.9,286046994.5,N,2.9
1501325755.8,286046996.1,N,2.7
1501325775.6,286046995.8,N,2.6
1501325795.5,286046995.1,N,2.5
1501325815.3,286046995.6,N,2.1
1501325835.1,286046996.1,N,1.8
1501325855.9,286046993.4,P,1.7
1501325875.7,286046997.1,N,1.7
1501325895.6,286046999.0,N,2.0
1501325915.4,286046998.4,N,1.9
1501325935.2,286046996.6,N,1.8
1501325955.1,286046996.6,N,1.7
1501325956.0,286046996.6,N,1.5
1501325975.8,286046997.7,N,1.5
1501325995.7,286046997.8,N,1.4
